Location: Barrialito
(10.1025°N, 66.8154°W)
Time: 12:59:17
(UTC+00:00)

NOAA 6 - Visible Passes

Search period start: 02 December 2024 00:00
Search period end: 12 December 2024 00:00
Orbit: 767 x 783 km, 98.6° (Epoch: 01 December)

Date Brightness Start Highest point End Pass type
(mag) Time Alt. Az. Time Alt. Az. Time Alt. Az.
02 Dec 4.4 22:55:11 10° SE 22:59:59 41° ENE 23:04:46 10° N visible
03 Dec 7.1 00:37:07 10° WSW 00:38:59 12° W 00:40:51 10° WNW visible
03 Dec 5.4 22:23:15 10° ESE 22:26:22 16° ENE 22:29:28 10° NE visible
04 Dec 5.8 00:00:43 10° SSW 00:05:13 31° W 00:09:43 10° NW visible
04 Dec 4.0 23:26:21 10° S 23:31:30 82° WSW 23:36:36 10° NNW visible
05 Dec 4.4 22:53:04 10° SE 22:57:49 38° ENE 23:02:31 10° N visible
06 Dec 7.0 00:34:34 10° SW 00:36:48 13° W 00:39:02 10° WNW visible
06 Dec 5.5 22:21:19 10° ESE 22:24:12 15° ENE 22:27:05 10° NE visible
06 Dec 5.6 23:58:27 10° SSW 00:03:03 33° W 00:07:37 10° NW visible
07 Dec 4.0 23:24:10 10° SSE 23:29:19 87° WSW 23:34:26 10° NNW visible
08 Dec 4.5 22:50:58 10° SE 22:55:38 36° ENE 23:00:16 10° N visible
09 Dec 6.9 00:32:05 10° SW 00:34:37 14° W 00:37:08 10° WNW visible
09 Dec 5.5 23:56:11 10° SSW 00:00:51 35° W 00:05:29 10° NW visible
10 Dec 3.9 23:21:58 10° SSE 23:27:07 88° ENE 23:32:13 10° NNW visible
11 Dec 4.6 22:48:50 10° SE 22:53:26 34° ENE 22:57:59 10° NNE visible
